Weather History for Augusta, ME

Change the Weather History Date:

Thursday, June 20, 2013

  Actual Average Record
Temperature  
Mean Temperature 62 °F 65 °F  
Max Temperature 75 °F 75 °F 91 °F (2012)
Min Temperature 50 °F 56 °F 46 °F (2004)
Degree Days  
Heating Degree Days 2 2  
Month to date heating degree days 78  
Since 1 June heating degree days 78  
Since 1 July heating degree days 7404  
Cooling Degree Days 0 3  
Month to date cooling degree days 32  
Year to date cooling degree days 41  
Since 1 June cooling degree days 32  
Growing Degree Days 12 (Base 50)    
Moisture  
Dew Point 45 °F    
Average Humidity 54    
Maximum Humidity 83    
Minimum Humidity 29    
Precipitation  
Precipitation 0.00 in 0.11 in 0.26 in (2006)
Month to date precipitation 2.48  
Year to date precipitation 18.37  
Sea Level Pressure  
Sea Level Pressure 30.21 in    
Wind  
Wind Speed 4 mph (WSW)    
Max Wind Speed 10 mph    
Max Gust Speed 17 mph    
Visibility 10 miles    
Events      
T = Trace of Precipitation, MM = Missing Value Source: NWS Daily Summary

Daily Weather History Graph

Daily Weather History Graph

Search for Another Location

Airport:

Trip Planner

Search our weather history database for the weather conditions in past years. The results will help you decide how hot, cold, wet, or windy it might be!

Date:

Astronomy

Jun. 20, 2013 Rise Set
Actual Time 4:54 AM EDT 8:26 PM EDT
Civil Twilight 4:18 AM EDT 9:03 PM EDT
Nautical Twilight 3:29 AM EDT 9:51 PM EDT
Astronomical Twilight 2:27 AM EDT 10:54 PM EDT
Moon 5:21 PM EDT (6/20) 2:24 AM EDT (6/20)
Length of Visible Light 16h 45m
Length of Day
15h 31m
Waxing Gibbous, 89% of the Moon is Illuminated
Jun 20
Waxing Gibbous
Jun 23
Full
Jun 30
Last Quarter
Jul 8
New
Jul 15
First Quarter

Hourly Weather History & Observations

Time (EDT) Temp. Dew Point Humidity Pressure Visibility Wind Dir Wind Speed Gust Speed Precip Events Conditions
12:53 AM 57.0 °F 42.1 °F 57% 30.15 in 10.0 mi NW 4.6 mph - N/A   Clear
1:53 AM 55.9 °F 41.0 °F 57% 30.17 in 10.0 mi NW 4.6 mph - N/A   Clear
2:53 AM 55.0 °F 42.1 °F 62% 30.17 in 10.0 mi Calm Calm - N/A   Clear
3:53 AM 53.1 °F 43.0 °F 69% 30.18 in 10.0 mi North 3.5 mph - N/A   Clear
4:53 AM 52.0 °F 43.0 °F 71% 30.20 in 10.0 mi North 3.5 mph - N/A   Clear
5:53 AM 50.0 °F 44.1 °F 80% 30.22 in 10.0 mi Calm Calm - N/A   Clear
6:53 AM 54.0 °F 46.9 °F 77% 30.24 in 10.0 mi NNW 3.5 mph - N/A   Partly Cloudy
7:53 AM 59.0 °F 46.9 °F 64% 30.26 in 10.0 mi Calm Calm - N/A   Clear
8:53 AM 64.0 °F 46.0 °F 52% 30.26 in 10.0 mi Calm Calm - N/A   Clear
9:53 AM 66.9 °F 45.0 °F 45% 30.25 in 10.0 mi Calm Calm - N/A   Clear
10:53 AM 69.1 °F 43.0 °F 39% 30.25 in 10.0 mi WSW 3.5 mph - N/A   Clear
11:53 AM 71.1 °F 44.1 °F 38% 30.23 in 10.0 mi Variable 6.9 mph - N/A   Clear
12:53 PM 72.0 °F 45.0 °F 38% 30.23 in 10.0 mi Variable 3.5 mph - N/A   Partly Cloudy
1:53 PM 73.0 °F 43.0 °F 34% 30.22 in 10.0 mi WSW 10.4 mph - N/A   Clear
2:53 PM 73.9 °F 44.1 °F 34% 30.22 in 10.0 mi Variable 5.8 mph - N/A   Clear
3:53 PM 75.0 °F 41.0 °F 29% 30.21 in 10.0 mi Variable 4.6 mph - N/A   Clear
4:53 PM 73.9 °F 42.1 °F 32% 30.19 in 10.0 mi Variable 6.9 mph - N/A   Clear
5:53 PM 72.0 °F 46.9 °F 41% 30.19 in 10.0 mi SSW 9.2 mph - N/A   Clear
6:53 PM 70.0 °F 46.9 °F 44% 30.20 in 10.0 mi SSW 5.8 mph 17.3 mph N/A   Clear
7:53 PM 66.9 °F 46.0 °F 47% 30.20 in 10.0 mi Variable 6.9 mph - N/A   Clear
8:53 PM 63.0 °F 45.0 °F 52% 30.21 in 10.0 mi South 5.8 mph - N/A   Clear
9:53 PM 60.1 °F 48.0 °F 64% 30.23 in 10.0 mi South 5.8 mph - N/A   Clear
10:53 PM 57.9 °F 51.1 °F 78% 30.22 in 10.0 mi SSW 4.6 mph - N/A   Clear
11:53 PM 57.0 °F 52.0 °F 83% 30.22 in 10.0 mi SSW 4.6 mph - N/A   Clear